GALAXY 12 (G-12) (27715 NORAD) Tracking and Keplerian Element Data

This shows tracking and keplerian element data for the satellite.

Feedback or suggestion? Click here.




ElementValue
Catalog27715
NameGALAXY 12 (G-12)
Epoch Orbit4319
Epoch Day12.87531403
Epoch Year2024
RAAN79.3792
Inclination4.7187
Eccentricity0.0002862
Argument of Perigee267.2289
Mean Anonmoly110.9792
Mean Motion0.98984135
Decay Rate-5E-08
L11 27715U 03013B 24012.87531403 -.00000005 00000+0 00000+0 0 9993
L22 27715 4.7187 79.3792 0002862 267.2289 110.9792 0.98984135 43195



Live tracking and technical data element details for GALAXY 12 (G-12) (NORAD 27715). GALAXY 12 (G-12) can be tracked NOW for your location showing map with azimuth and elevation plus other details from your city location.







IsCatalogInMostPopularTable: catalog: 27715, numindb: 295
Update: records affected: 1



GetName: 27715 GALAXY 12 (G-12)

Hit Count: updated at: Thu, 15 May 2025 09:05:54 GMT